This is the latest recevied weather packets stored in our database for station/object KF5JED-13. If no packets are shown the sender has not sent any weather packets the latest 10 day(s).
| Time | Temp. | Humidity | Pressure | Rain* | Wind** | Luminosity | Snow |
|---|---|---|---|---|---|---|---|
| 1777720085 | 4.44° C | 91% | 1021.8 hPa | 0 mm | - | 0 W/m² | - |
| 1777719783 | 4.44° C | 91% | 1021.7 hPa | 0 mm | - | 0 W/m² | - |
| 1777719480 | 4.44° C | 91% | 1021.8 hPa | 0.51 mm | - | 0 W/m² | - |
| 1777719176 | 4.44° C | 92% | 1021.7 hPa | 0.51 mm | - | 0 W/m² | - |
| 1777718875 | 3.89° C | 92% | 1021.8 hPa | 0 mm | - | 0 W/m² | - |
| 1777718572 | 3.89° C | 92% | 1021.8 hPa | 0 mm | - | 0 W/m² | - |
| 1777718269 | 3.89° C | 92% | 1021.8 hPa | 0 mm | - | 0 W/m² | - |
| 1777717966 | 3.33° C | 92% | 1021.9 hPa | 0 mm | - | 0 W/m² | - |
| 1777717663 | 3.33° C | 92% | 1021.8 hPa | 0 mm | - | 0 W/m² | - |
| 1777717360 | 2.22° C | 91% | 1021.9 hPa | 0 mm | - | 0 W/m² | - |
| 1777717058 | 1.67° C | 91% | 1022 hPa | 0 mm | - | 0 W/m² | - |
| 1777716756 | 2.78° C | 90% | 1021.8 hPa | 0 mm | - | 0 W/m² | - |
| 1777716454 | 3.33° C | 91% | 1021.7 hPa | 0 mm | - | 0 W/m² | - |
| 1777716152 | 3.89° C | 91% | 1021.6 hPa | 0 mm | - | 0 W/m² | - |
| 1777715850 | 3.89° C | 91% | 1021.7 hPa | 0 mm | - | 0 W/m² | - |
| 1777715547 | 3.89° C | 92% | 1021.6 hPa | 0 mm | - | 0 W/m² | - |
| 1777715245 | 3.89° C | 92% | 1021.8 hPa | 0 mm | - | 0 W/m² | - |
| 1777714640 | 3.33° C | 93% | 1021.5 hPa | 0 mm | - | 0 W/m² | - |
| 1777714338 | 3.33° C | 93% | 1021.6 hPa | 0 mm | - | 0 W/m² | - |
| 1777714035 | 2.78° C | 93% | 1021.4 hPa | 0 mm | - | 0 W/m² | - |
| 1777713733 | 2.22° C | 92% | 1021.4 hPa | 0 mm | - | 0 W/m² | - |
| 1777713429 | 2.22° C | 92% | 1021.5 hPa | 0 mm | - | 0 W/m² | - |
| 1777713125 | 1.67° C | 92% | 1021.5 hPa | 0 mm | - | 0 W/m² | - |
| 1777712823 | 2.22° C | 92% | 1021.6 hPa | 0 mm | - | 0 W/m² | - |
| 1777712520 | 2.22° C | 92% | 1021.5 hPa | 0 mm | - | 0 W/m² | - |
* Rain latest hour (hover to see other rain measurements)
** Current wind speed in m/s (hover to see current wind gust speed)